Regional Weather Roundup
Issued by NWS

Home | Current Version | Previous Version | Graphics & Text | Print | Product List | Glossary On
Versions: 1 2 3 4 5 6 7 8 9 10 11 12 13 14 15 16 17 18 19 20 21 22 23 24 25 26 27 28 29 30 31 32 33 34 35 36 37 38 39 40 41 42 43 44 45 46 47 48 49 50
000
ASUS43 KBIS 281802
RWRND

NORTH DAKOTA REGIONAL WEATHER ROUNDUP
NATIONAL WEATHER SERVICE BISMARCK ND
100 PM CDT WED SEP 28 2016

NOTE: "FAIR" INDICATES FEW OR NO CLOUDS BELOW 12,000 FEET WITH NO
SIGNIFICANT WEATHER AND/OR OBSTRUCTIONS TO VISIBILITY.


NDZ001>003-009>011-017-281900-
NORTHWEST NORTH DAKOTA

CITY           SKY/WX    TMP DP  RH WIND       PRES   REMARKS
WILLISTON      SUNNY     64  49  57 N5        30.26F
6HR MIN TEMP:  47; 6HR MAX TEMP:  64;

MINOT          SUNNY     66  42  41 E9        30.28R
MINOT AFB      SUNNY     66  41  40 E9        30.27R
$$

NDZ018>021-031>035-040>046-281900-
SOUTHWEST NORTH DAKOTA

CITY           SKY/WX    TMP DP  RH WIND       PRES   REMARKS
BISMARCK       SUNNY     64  43  46 SE7       30.29S
6HR MIN TEMP:  36; 6HR MAX TEMP:  64;

DICKINSON      SUNNY     69  47  45 SE9       30.25R
GARRISON         N/A     67  37  33 E8        30.27S
6HR MIN TEMP:  41; 6HR MAX TEMP:  67;

HETTINGER ARPT SUNNY     70  46  42 SE8       30.27S
$$

NDZ004>008-012>016-024-026-027-054-281900-
NORTHEAST NORTH DAKOTA

CITY           SKY/WX    TMP DP  RH WIND       PRES   REMARKS
GRAND FORKS    CLOUDY    58  45  62 CALM      30.31S
GRND FRKS AFB  CLOUDY    56  46  67 VRB1      30.32R
DEVILS LAKE    CLOUDY    51  44  77 CALM      30.33S
$$

NDZ022-023-025-028>030-036>039-047>053-281900-
SOUTHEAST NORTH DAKOTA

CITY           SKY/WX    TMP DP  RH WIND       PRES   REMARKS
FARGO          CLOUDY    57  47  69 NW3       30.30R
6HR MIN TEMP:  44; 6HR MAX TEMP:  57;

JAMESTOWN      MOSUNNY   55  46  71 W3        30.30S
$$




USA.gov is the U.S. government's official web portal to all federal, state and local government web resources and services.